Hourly Data Report for October 15, 2014

All times are specified in Local Standard Time (LST). Add 1 hour to adjust for Daylight Saving Time where and when it is observed.

BAKER LAKE A
NUNAVUT

64°17'56.000" N
96°04'40.000" W
18.60 m
2300503
71926
YBK

Download Data

Hourly Data (October 2014)
Hourly Data Report for October 15, 2014
Temp Definition
°C
Dew Point Temp Definition
°C
Rel Hum Definition
%
Wind Dir Definition
10's deg

Wind Spd Definition
km/h
Visibility Definition
km
Stn Press Definition
kPa
Hmdx Definition


Wind Chill Definition


Weather Definition


TIME
00:00 Legend Double Dagger -4.8 -6.1 91 30 13 24.1 101.11   -10 Snow
01:00 Legend Double Dagger -4.3 -5.6 91 33 13 24.1 101.12   -9 LegendNANA
02:00 Legend Double Dagger -5.3 -6.8 89 34 16 24.1 101.16   -11 LegendNANA
03:00 Legend Double Dagger -5.8 -6.8 93 33 11 24.1 101.18   -11 Mainly Clear
04:00 Legend Double Dagger -5.8 -7.3 89 35 10 24.1 101.23   -10 LegendNANA
05:00 Legend Double Dagger -5.9 -7.3 90 34 13 24.1 101.27   -11 LegendNANA
06:00 Legend Double Dagger -6.2 -7.3 92 34 18 24.1 101.25   -13 Mainly Clear
07:00 Legend Double Dagger -6.6 -7.8 91 33 18 32.2 101.23   -13 LegendNANA
08:00 Legend Double Dagger -5.5 -6.7 91 34 19 32.2 101.26   -12 LegendNANA
09:00 Legend Double Dagger -4.9 -6.3 90 34 18 32.2 101.31   -11 Mostly Cloudy
10:00 Legend Double Dagger -4.2 -5.8 89 35 27 32.2 101.30   -12 LegendNANA
11:00 Legend Double Dagger -3.2 -4.9 88 35 23 32.2 101.32   -10 LegendNANA
12:00 Legend Double Dagger -2.3 -4.8 83 36 30 32.2 101.33   -9 Mainly Clear
13:00 Legend Double Dagger -2.3 -4.6 84 36 26 32.2 101.36   -9 LegendNANA
14:00 Legend Double Dagger -1.9 -4.9 80 35 26 32.2 101.38   -8 LegendNANA
15:00 Legend Double Dagger -1.4 -5.1 76 1 28 32.2 101.40   -8 Mainly Clear
16:00 Legend Double Dagger -2.4 -5.1 82 36 25 32.2 101.45   -9 LegendNANA
17:00 Legend Double Dagger -3.9 -5.5 89 35 23 32.2 101.47   -11 LegendNANA
18:00 Legend Double Dagger -4.7 -6.1 90 34 20 32.2 101.51   -11 Clear
19:00 Legend Double Dagger -4.6 -6.0 90 36 21 24.1 101.57   -11 LegendNANA
20:00 Legend Double Dagger -5.2 -6.3 92 35 18 24.1 101.61   -11 LegendNANA
21:00 Legend Double Dagger -4.0 -5.3 91 1 20 24.1 101.67   -10 Mainly Clear
22:00 Legend Double Dagger -3.5 -5.2 88 36 21 24.1 101.69   -10 LegendNANA
23:00 Legend Double Dagger -3.3 -5.6 84 36 20 24.1 101.74   -9 LegendNANA

Notes on Data Quality.

Legend

  • E = Estimated
  • M = Missing
  • NA = Not Available
  • ‡ = Partner data that is not subject to review by the National Climate Archives
Date modified: